• Em Portugal
  • Lista de países
  • Para 7 dias
  • Temperatura da água
  • Mapas de satélite
  • Mapa do tempo
  • Widgets de tempo
  • user-avatar
    Iniciar Sessão

    Previsão horária em Gosciszewo

    Hoje, 20 Agosto, Segunda-feira

    Tempo Temperatura Precipitação Vento Pressão Humidade
    00:00 +19°C° 0 mm 2 m/s 758 mmHg 70%
    01:00 +19°C° 0 mm 2 m/s 757 mmHg 69%
    02:00 +19°C° 0 mm 2 m/s 757 mmHg 67%
    03:00 +19°C° 0 mm 3 m/s 757 mmHg 65%
    04:00 +19°C° 0 mm 3 m/s 756 mmHg 63%
    05:00 +20°C° 0 mm 4 m/s 756 mmHg 61%
    06:00 +21°C° 0 mm 4 m/s 756 mmHg 60%
    07:00 +22°C° 0 mm 4 m/s 756 mmHg 59%
    08:00 +25°C° 0 mm 5 m/s 756 mmHg 56%
    09:00 +26°C° 0 mm 5 m/s 756 mmHg 54%
    10:00 +28°C° 0 mm 5 m/s 755 mmHg 51%
    11:00 +27°C° 0 mm 5 m/s 755 mmHg 52%
    12:00 +27°C° 0 mm 6 m/s 755 mmHg 54%
    13:00 +27°C° 0 mm 6 m/s 755 mmHg 55%
    14:00 +26°C° 0,1 mm 6 m/s 755 mmHg 59%
    15:00 +25°C° 0,1 mm 5 m/s 755 mmHg 63%
    16:00 +25°C° 0,1 mm 5 m/s 755 mmHg 67%
    17:00 +23°C° 0 mm 5 m/s 755 mmHg 71%
    18:00 +22°C° 0 mm 5 m/s 755 mmHg 74%
    19:00 +21°C° 0 mm 5 m/s 755 mmHg 78%
    20:00 +20°C° 0 mm 5 m/s 755 mmHg 79%
    21:00 +19°C° 0 mm 5 m/s 755 mmHg 80%
    22:00 +17°C° 0 mm 5 m/s 756 mmHg 81%
    23:00 +17°C° 0 mm 5 m/s 756 mmHg 80%

    Amanhã, 21 Agosto, Terça-feira

    Tempo Temperatura Precipitação Vento Pressão Humidade
    00:00 +16°C° 0 mm 5 m/s 756 mmHg 78%
    01:00 +15°C° 0 mm 5 m/s 756 mmHg 76%
    02:00 +15°C° 0 mm 5 m/s 756 mmHg 77%
    03:00 +15°C° 0 mm 5 m/s 757 mmHg 77%
    04:00 +14°C° 0 mm 4 m/s 757 mmHg 77%
    05:00 +15°C° 0 mm 5 m/s 757 mmHg 74%
    06:00 +16°C° 0 mm 5 m/s 758 mmHg 71%
    07:00 +17°C° 0 mm 5 m/s 759 mmHg 68%
    08:00 +19°C° 0 mm 5 m/s 759 mmHg 63%
    09:00 +20°C° 0 mm 5 m/s 759 mmHg 59%
    10:00 +22°C° 0 mm 5 m/s 760 mmHg 54%
    11:00 +22°C° 0 mm 5 m/s 760 mmHg 52%
    12:00 +23°C° 0 mm 4 m/s 760 mmHg 49%
    13:00 +23°C° 0 mm 4 m/s 760 mmHg 47%
    14:00 +23°C° 0 mm 4 m/s 760 mmHg 48%
    15:00 +22°C° 0 mm 4 m/s 761 mmHg 50%
    16:00 +22°C° 0 mm 4 m/s 761 mmHg 51%
    17:00 +21°C° 0 mm 3 m/s 761 mmHg 59%
    18:00 +19°C° 0 mm 3 m/s 761 mmHg 67%
    19:00 +17°C° 0 mm 2 m/s 761 mmHg 74%
    20:00 +16°C° 0 mm 2 m/s 762 mmHg 78%
    21:00 +16°C° 0 mm 2 m/s 762 mmHg 82%
    22:00 +15°C° 0 mm 1 m/s 762 mmHg 86%
    23:00 +14°C° 0 mm 1 m/s 762 mmHg 87%

    Depois de amanhã, 22 Agosto, Quarta-feira

    Tempo Temperatura Precipitação Vento Pressão Humidade
    00:00 +14°C° 0 mm 1 m/s 763 mmHg 88%
    01:00 +14°C° 0 mm 1 m/s 763 mmHg 90%
    02:00 +13°C° 0 mm 1 m/s 763 mmHg 90%
    03:00 +13°C° 0 mm 2 m/s 763 mmHg 91%
    04:00 +13°C° 0 mm 2 m/s 763 mmHg 91%
    05:00 +14°C° 0 mm 2 m/s 763 mmHg 86%
    06:00 +15°C° 0 mm 2 m/s 763 mmHg 81%
    07:00 +16°C° 0 mm 3 m/s 763 mmHg 76%
    08:00 +18°C° 0 mm 3 m/s 763 mmHg 68%
    09:00 +20°C° 0 mm 3 m/s 763 mmHg 61%
    10:00 +22°C° 0 mm 3 m/s 763 mmHg 54%
    11:00 +24°C° 0 mm 3 m/s 763 mmHg 51%
    12:00 +24°C° 0 mm 3 m/s 762 mmHg 48%
    13:00 +25°C° 0 mm 3 m/s 762 mmHg 45%
    14:00 +26°C° 0 mm 3 m/s 761 mmHg 45%
    15:00 +26°C° 0 mm 3 m/s 761 mmHg 46%
    16:00 +26°C° 0 mm 3 m/s 761 mmHg 46%
    17:00 +24°C° 0 mm 3 m/s 760 mmHg 51%
    18:00 +22°C° 0 mm 3 m/s 760 mmHg 56%
    19:00 +20°C° 0 mm 3 m/s 760 mmHg 62%
    20:00 +20°C° 0 mm 4 m/s 760 mmHg 61%
    21:00 +19°C° 0 mm 4 m/s 760 mmHg 60%
    22:00 +18°C° 0 mm 4 m/s 760 mmHg 60%
    23:00 +18°C° 0 mm 4 m/s 760 mmHg 59%

    23 Agosto, Quinta-feira

    Tempo Temperatura Precipitação Vento Pressão Humidade
    00:00 +18°C° 0 mm 4 m/s 759 mmHg 58%
    01:00 +17°C° 0 mm 4 m/s 759 mmHg 58%
    02:00 +17°C° 0 mm 4 m/s 759 mmHg 59%
    03:00 +17°C° 0 mm 4 m/s 759 mmHg 60%
    04:00 +17°C° 0 mm 4 m/s 758 mmHg 62%
    05:00 +18°C° 0 mm 4 m/s 758 mmHg 64%
    06:00 +19°C° 0 mm 4 m/s 758 mmHg 66%
    07:00 +19°C° 0 mm 4 m/s 758 mmHg 68%
    08:00 +21°C° 0 mm 4 m/s 758 mmHg 65%
    09:00 +22°C° 0 mm 4 m/s 758 mmHg 63%
    10:00 +23°C° 0 mm 4 m/s 758 mmHg 60%
    11:00 +25°C° 0 mm 4 m/s 757 mmHg 57%
    12:00 +26°C° 0 mm 4 m/s 757 mmHg 54%
    13:00 +27°C° 0 mm 3 m/s 757 mmHg 51%
    14:00 +28°C° 0 mm 3 m/s 756 mmHg 51%
    15:00 +28°C° 0 mm 3 m/s 756 mmHg 50%
    16:00 +28°C° 0 mm 3 m/s 756 mmHg 50%
    17:00 +27°C° 0 mm 3 m/s 755 mmHg 53%
    18:00 +26°C° 0 mm 3 m/s 755 mmHg 57%
    19:00 +25°C° 0 mm 3 m/s 755 mmHg 61%
    20:00 +24°C° 0 mm 3 m/s 755 mmHg 61%
    21:00 +24°C° 0 mm 3 m/s 754 mmHg 62%
    22:00 +22°C° 0 mm 3 m/s 754 mmHg 62%
    23:00 +22°C° 0 mm 4 m/s 754 mmHg 62%

    24 Agosto, Sexta-feira

    Tempo Temperatura Precipitação Vento Pressão Humidade
    00:00 +21°C° 0 mm 4 m/s 754 mmHg 62%
    01:00 +21°C° 0 mm 4 m/s 753 mmHg 62%
    02:00 +21°C° 0 mm 4 m/s 753 mmHg 64%
    03:00 +21°C° 0 mm 4 m/s 753 mmHg 66%
    04:00 +20°C° 0 mm 4 m/s 752 mmHg 68%
    05:00 +21°C° 0,1 mm 4 m/s 752 mmHg 70%
    06:00 +22°C° 0,1 mm 4 m/s 752 mmHg 71%
    07:00 +22°C° 0,1 mm 5 m/s 752 mmHg 73%
    08:00 +25°C° 0,1 mm 5 m/s 751 mmHg 70%
    09:00 +26°C° 0,1 mm 5 m/s 751 mmHg 67%
    10:00 +28°C° 0,1 mm 5 m/s 751 mmHg 63%
    11:00 +29°C° 0,1 mm 5 m/s 751 mmHg 59%
    12:00 +30°C° 0,1 mm 5 m/s 750 mmHg 54%
    13:00 +32°C° 0,1 mm 5 m/s 750 mmHg 50%
    14:00 +32°C° 0,2 mm 4 m/s 750 mmHg 50%
    15:00 +32°C° 0,2 mm 4 m/s 750 mmHg 50%
    16:00 +31°C° 0,2 mm 3 m/s 749 mmHg 50%
    17:00 +29°C° 0 mm 3 m/s 749 mmHg 54%
    18:00 +28°C° 0 mm 2 m/s 749 mmHg 57%
    19:00 +27°C° 0 mm 2 m/s 749 mmHg 61%
    20:00 +26°C° 0,3 mm 2 m/s 749 mmHg 66%
    21:00 +25°C° 0,3 mm 2 m/s 749 mmHg 71%
    22:00 +24°C° 0,3 mm 3 m/s 749 mmHg 75%
    23:00 +22°C° 0,4 mm 3 m/s 749 mmHg 80%

    25 Agosto, Sábado

    Tempo Temperatura Precipitação Vento Pressão Humidade
    00:00 +21°C° 0,4 mm 3 m/s 750 mmHg 85%
    01:00 +20°C° 0,4 mm 4 m/s 750 mmHg 89%
    02:00 +20°C° 1,1 mm 4 m/s 750 mmHg 90%
    03:00 +19°C° 1,1 mm 4 m/s 750 mmHg 92%
    04:00 +19°C° 1,1 mm 4 m/s 750 mmHg 93%
    05:00 +19°C° 0,2 mm 4 m/s 750 mmHg 90%
    06:00 +19°C° 0,2 mm 4 m/s 751 mmHg 88%
    07:00 +17°C° 0,2 mm 5 m/s 751 mmHg 85%
    08:00 +19°C° 0,2 mm 5 m/s 751 mmHg 83%
    09:00 +19°C° 0,2 mm 5 m/s 752 mmHg 81%
    10:00 +19°C° 0,2 mm 5 m/s 752 mmHg 80%
    11:00 +17°C° 0,3 mm 5 m/s 752 mmHg 81%
    12:00 +17°C° 0,3 mm 5 m/s 752 mmHg 82%
    13:00 +17°C° 0,3 mm 5 m/s 753 mmHg 83%
    14:00 +16°C° 0,2 mm 5 m/s 753 mmHg 83%
    15:00 +16°C° 0,2 mm 5 m/s 753 mmHg 84%
    16:00 +16°C° 0,2 mm 5 m/s 753 mmHg 84%
    17:00 +15°C° 0,1 mm 5 m/s 753 mmHg 84%
    18:00 +15°C° 0,1 mm 4 m/s 754 mmHg 83%
    19:00 +15°C° 0,1 mm 4 m/s 754 mmHg 83%
    20:00 +16°C° 0 mm 3 m/s 754 mmHg 82%
    21:00 +16°C° 0 mm 3 m/s 754 mmHg 81%
    22:00 +14°C° 0 mm 3 m/s 754 mmHg 80%
    23:00 +14°C° 0 mm 3 m/s 754 mmHg 81%
    Mostrar mais